Location: Sebastopol
(38.4021°N, 122.8239°W)
Time: 15:38:18
(UTC+00:00)

Cosmos 1992 Rocket - Pass Details

Date: 29 October 2020
Orbit: 759 x 766 km, 74.0° (Epoch: 30 November)

Event Time Altitude Azimuth Distance (km) Brightness Sun altitude
Exits shadow 12:59:09 - 337° (NNW) 2,392 6.3 -19.3°
Reaches altitude 10° 12:59:23 10° 337° (NNW) 2,299 6.2 -19.3°
Maximum altitude 13:04:34 69° 255° (WSW) 815 3.9 -18.3°
Drops below altitude 10° 13:09:43 10° 172° (S) 2,288 6.6 -17.3°
Sets 13:12:05 0° 170° (S) 3,210 7.4 -16.8°
